• In Netherlands
  • List of Countries
  • For 7 days
  • Water Temperature
  • Satellite Maps
  • Weather Map
  • Weather Widgets
  • user-avatar
    Login

    Hourly Weather Uige

    Today, 17 January, Tuesday

    Time Temperature Precipitation Wind Pressure Humidity
    00:00 +22°C° 0 mm 1 mps 690 mmHg 94%
    01:00 +22°C° 0 mm 1 mps 689 mmHg 94%
    02:00 +21°C° 0 mm 1 mps 689 mmHg 95%
    03:00 +21°C° 0 mm 1 mps 689 mmHg 95%
    04:00 +21°C° 0 mm 1 mps 689 mmHg 95%
    05:00 +21°C° 0 mm 1 mps 689 mmHg 94%
    06:00 +22°C° 0 mm 1 mps 689 mmHg 92%
    07:00 +21°C° 0 mm 0 mps 690 mmHg 90%
    08:00 +24°C° 0 mm 0 mps 690 mmHg 79%
    09:00 +27°C° 0 mm 0 mps 691 mmHg 68%
    10:00 +30°C° 0 mm 0 mps 692 mmHg 56%
    11:00 +32°C° 0.6 mm 1 mps 691 mmHg 57%
    12:00 +32°C° 0.6 mm 1 mps 690 mmHg 57%
    13:00 +32°C° 0.6 mm 2 mps 690 mmHg 58%
    14:00 +31°C° 0.7 mm 2 mps 689 mmHg 61%
    15:00 +31°C° 0.7 mm 2 mps 688 mmHg 64%
    16:00 +30°C° 0.7 mm 2 mps 688 mmHg 68%
    17:00 +28°C° 0.4 mm 2 mps 688 mmHg 75%
    18:00 +26°C° 0.4 mm 2 mps 688 mmHg 82%
    19:00 +24°C° 0.4 mm 2 mps 688 mmHg 90%
    20:00 +23°C° 0.2 mm 2 mps 689 mmHg 92%
    21:00 +23°C° 0.2 mm 2 mps 690 mmHg 94%
    22:00 +21°C° 0.2 mm 2 mps 690 mmHg 96%
    23:00 +21°C° 0 mm 2 mps 690 mmHg 96%

    Tomorrow, 18 January, Wednesday

    Time Temperature Precipitation Wind Pressure Humidity
    00:00 +20°C° 0 mm 2 mps 690 mmHg 97%
    01:00 +21°C° 0 mm 1 mps 690 mmHg 98%
    02:00 +21°C° 0 mm 1 mps 689 mmHg 98%
    03:00 +21°C° 0 mm 1 mps 689 mmHg 98%
    04:00 +20°C° 0 mm 1 mps 689 mmHg 98%
    05:00 +21°C° 0 mm 1 mps 689 mmHg 96%
    06:00 +21°C° 0 mm 1 mps 690 mmHg 95%
    07:00 +20°C° 0 mm 2 mps 690 mmHg 94%
    08:00 +23°C° 0 mm 2 mps 691 mmHg 82%
    09:00 +25°C° 0 mm 2 mps 691 mmHg 71%
    10:00 +27°C° 0 mm 2 mps 692 mmHg 59%
    11:00 +28°C° 0.1 mm 2 mps 691 mmHg 56%
    12:00 +30°C° 0.1 mm 2 mps 691 mmHg 52%
    13:00 +31°C° 0.1 mm 2 mps 691 mmHg 48%
    14:00 +30°C° 0.2 mm 2 mps 691 mmHg 53%
    15:00 +30°C° 0.2 mm 2 mps 690 mmHg 57%
    16:00 +29°C° 0.2 mm 2 mps 690 mmHg 62%
    17:00 +27°C° 0.2 mm 2 mps 690 mmHg 70%
    18:00 +25°C° 0.2 mm 1 mps 690 mmHg 79%
    19:00 +23°C° 0.2 mm 1 mps 691 mmHg 87%
    20:00 +23°C° 0.1 mm 1 mps 691 mmHg 89%
    21:00 +23°C° 0.1 mm 1 mps 691 mmHg 91%
    22:00 +22°C° 0.1 mm 1 mps 691 mmHg 92%
    23:00 +22°C° 0 mm 1 mps 691 mmHg 93%

    Day after tomorrow, 19 January, Thursday

    Time Temperature Precipitation Wind Pressure Humidity
    00:00 +22°C° 0 mm 1 mps 690 mmHg 93%
    01:00 +22°C° 0 mm 1 mps 690 mmHg 93%
    02:00 +22°C° 0 mm 1 mps 689 mmHg 92%
    03:00 +22°C° 0 mm 1 mps 689 mmHg 91%
    04:00 +22°C° 0 mm 1 mps 689 mmHg 90%
    05:00 +22°C° 0 mm 1 mps 690 mmHg 88%
    06:00 +23°C° 0 mm 1 mps 690 mmHg 86%
    07:00 +23°C° 0 mm 1 mps 691 mmHg 84%
    08:00 +25°C° 0 mm 1 mps 691 mmHg 74%
    09:00 +27°C° 0 mm 1 mps 692 mmHg 64%
    10:00 +30°C° 0 mm 1 mps 693 mmHg 54%
    11:00 +31°C° 0 mm 1 mps 692 mmHg 50%
    12:00 +32°C° 0 mm 1 mps 692 mmHg 46%
    13:00 +34°C° 0 mm 2 mps 691 mmHg 41%
    14:00 +32°C° 0 mm 2 mps 691 mmHg 43%
    15:00 +32°C° 0 mm 2 mps 690 mmHg 45%
    16:00 +32°C° 0 mm 2 mps 690 mmHg 47%
    17:00 +29°C° 0 mm 2 mps 690 mmHg 56%
    18:00 +27°C° 0 mm 1 mps 690 mmHg 65%
    19:00 +24°C° 0 mm 1 mps 690 mmHg 74%
    20:00 +24°C° 0 mm 1 mps 690 mmHg 76%
    21:00 +23°C° 0 mm 1 mps 690 mmHg 78%
    22:00 +23°C° 0 mm 1 mps 691 mmHg 80%
    23:00 +22°C° 0 mm 1 mps 690 mmHg 83%

    20 January, Friday

    Time Temperature Precipitation Wind Pressure Humidity
    00:00 +21°C° 0 mm 1 mps 690 mmHg 86%
    01:00 +20°C° 0 mm 1 mps 690 mmHg 89%
    02:00 +20°C° 0 mm 1 mps 690 mmHg 90%
    03:00 +19°C° 0 mm 1 mps 689 mmHg 92%
    04:00 +16°C° 0 mm 0 mps 689 mmHg 93%
    05:00 +18°C° 0 mm 0 mps 690 mmHg 91%
    06:00 +19°C° 0 mm 0 mps 691 mmHg 88%
    07:00 +20°C° 0 mm 0 mps 691 mmHg 85%
    08:00 +23°C° 0 mm 0 mps 692 mmHg 76%
    09:00 +25°C° 0 mm 0 mps 692 mmHg 66%
    10:00 +28°C° 0 mm 0 mps 693 mmHg 57%
    11:00 +31°C° 0 mm 1 mps 692 mmHg 52%
    12:00 +32°C° 0 mm 1 mps 692 mmHg 47%
    13:00 +34°C° 0 mm 1 mps 691 mmHg 43%
    14:00 +33°C° 0.1 mm 1 mps 690 mmHg 44%
    15:00 +32°C° 0.1 mm 1 mps 690 mmHg 46%
    16:00 +32°C° 0.1 mm 1 mps 689 mmHg 48%
    17:00 +29°C° 0 mm 1 mps 689 mmHg 56%
    18:00 +27°C° 0 mm 1 mps 689 mmHg 64%
    19:00 +24°C° 0 mm 1 mps 689 mmHg 72%
    20:00 +24°C° 0 mm 1 mps 689 mmHg 74%
    21:00 +23°C° 0 mm 1 mps 690 mmHg 77%
    22:00 +23°C° 0 mm 1 mps 690 mmHg 79%
    23:00 +22°C° 0 mm 1 mps 690 mmHg 83%

    21 January, Saturday

    Time Temperature Precipitation Wind Pressure Humidity
    00:00 +22°C° 0 mm 1 mps 690 mmHg 87%
    01:00 +21°C° 0 mm 1 mps 689 mmHg 91%
    02:00 +21°C° 0 mm 1 mps 689 mmHg 93%
    03:00 +20°C° 0 mm 1 mps 689 mmHg 95%
    04:00 +20°C° 0 mm 1 mps 689 mmHg 98%
    05:00 +21°C° 0 mm 1 mps 689 mmHg 96%
    06:00 +21°C° 0 mm 1 mps 690 mmHg 94%
    07:00 +22°C° 0 mm 1 mps 691 mmHg 92%
    08:00 +25°C° 0 mm 1 mps 691 mmHg 80%
    09:00 +28°C° 0 mm 1 mps 692 mmHg 68%
    10:00 +31°C° 0 mm 1 mps 693 mmHg 57%
    11:00 +32°C° 0.3 mm 1 mps 692 mmHg 53%
    12:00 +33°C° 0.3 mm 1 mps 691 mmHg 50%
    13:00 +34°C° 0.3 mm 1 mps 691 mmHg 46%
    14:00 +33°C° 0.6 mm 1 mps 690 mmHg 49%
    15:00 +32°C° 0.6 mm 1 mps 690 mmHg 53%
    16:00 +31°C° 0.6 mm 1 mps 689 mmHg 56%
    17:00 +29°C° 0.2 mm 1 mps 689 mmHg 66%
    18:00 +27°C° 0.2 mm 1 mps 689 mmHg 75%
    19:00 +24°C° 0.2 mm 2 mps 689 mmHg 85%
    20:00 +23°C° 0 mm 2 mps 689 mmHg 88%
    21:00 +23°C° 0 mm 2 mps 690 mmHg 91%
    22:00 +22°C° 0 mm 1 mps 690 mmHg 94%
    23:00 +21°C° 0 mm 1 mps 690 mmHg 95%

    22 January, Sunday

    Time Temperature Precipitation Wind Pressure Humidity
    00:00 +21°C° 0 mm 1 mps 690 mmHg 95%
    01:00 +20°C° 0 mm 1 mps 689 mmHg 96%
    02:00 +20°C° 0 mm 1 mps 689 mmHg 96%
    03:00 +20°C° 0 mm 1 mps 690 mmHg 97%
    04:00 +20°C° 0 mm 1 mps 690 mmHg 97%
    05:00 +21°C° 0 mm 1 mps 690 mmHg 96%
    06:00 +21°C° 0 mm 1 mps 691 mmHg 95%
    07:00 +21°C° 0 mm 1 mps 691 mmHg 94%
    08:00 +24°C° 0 mm 1 mps 692 mmHg 83%
    09:00 +26°C° 0 mm 1 mps 692 mmHg 72%
    10:00 +28°C° 0 mm 1 mps 693 mmHg 62%
    11:00 +29°C° 0 mm 2 mps 692 mmHg 58%
    12:00 +30°C° 0 mm 2 mps 692 mmHg 54%
    13:00 +30°C° 0 mm 2 mps 691 mmHg 50%
    14:00 +30°C° 0 mm 2 mps 691 mmHg 51%
    15:00 +30°C° 0 mm 2 mps 690 mmHg 51%
    16:00 +30°C° 0 mm 3 mps 689 mmHg 52%
    17:00 +28°C° 0 mm 2 mps 690 mmHg 59%
    18:00 +26°C° 0 mm 2 mps 690 mmHg 66%
    19:00 +24°C° 0 mm 1 mps 690 mmHg 73%
    20:00 +24°C° 0 mm 1 mps 690 mmHg 75%
    21:00 +23°C° 0 mm 1 mps 690 mmHg 77%
    22:00 +22°C° 0 mm 1 mps 691 mmHg 80%
    23:00 +22°C° 0 mm 1 mps 691 mmHg 81%
    Show more